Voltar ao catálogo

STARLINK-34302

AtivoComunicaçõesVLEO
NORAD 65216·PAYLOAD·🇺🇸 United States

Lançado Aug 14, 2025 de Cape Canaveral Space Force Station

Loading…

Próximas Passagens (próximas 24 horas)

TLE

AtualizadoSource: CelesTrak SupGP

Época: Sep 15, 2026, 03:47 UTC

1 65216C 25176U   26258.15812500  .00078932  00000+0  23356-2 0  2583
2 65216  53.1588 348.6870 0000963  74.1789 336.4750 15.34303342    19

Acompanhe STARLINK-34302 em tempo real com AllMySat

Download on the App Store